Zurück zum Katalog

TIANMU-1 QIXIANG XINGZOU 02

AktivWetterSSO
NORAD 55137·PAYLOAD·🇨🇳 China
Dieser Satellitenname wurde noch nicht durch offizielle Quellen bestätigt.

Gestartet Jan 9, 2023 von Jiuquan Satellite Launch Center

Loading…

Nächste Überflüge (nächste 24 Stunden)

TLE

AktuellSource: Space-Track

Epoche: Sep 14, 2026, 15:25 UTC

1 55137U 23003E   26257.64238975  .00021180  00000-0  27488-3 0  9999
2 55137  97.1355 333.1792 0004605 130.7346 229.4312 15.58844340206182

Verfolge TIANMU-1 QIXIANG XINGZOU 02 in Echtzeit mit AllMySat

Download on the App Store